This is the latest recevied weather packets stored in our database for station/object SP8MDH-4. If no packets are shown the sender has not sent any weather packets the latest 10 day(s).
| Time | Temp. | Humidity | Pressure | Rain* | Wind** | Luminosity | Snow |
|---|---|---|---|---|---|---|---|
| 1777985102 | 28.33° C | 21% | 1009.8 hPa | - | - | - | - |
| 1777983602 | 27.78° C | 21% | 1010.1 hPa | - | - | - | - |
| 1777982102 | 27.78° C | 21% | 1010.4 hPa | - | - | - | - |
| 1777980602 | 27.78° C | 21% | 1010.6 hPa | - | - | - | - |
| 1777979102 | 27.78° C | 22% | 1010.7 hPa | - | - | - | - |
| 1777977601 | 27.22° C | 22% | 1011 hPa | - | - | - | - |
| 1777976101 | 27.22° C | 23% | 1011.4 hPa | - | - | - | - |
| 1777974601 | 27.22° C | 23% | 1011.5 hPa | - | - | - | - |
| 1777973101 | 27.22° C | 24% | 1011.7 hPa | - | - | - | - |
| 1777971601 | 26.67° C | 24% | 1011.9 hPa | - | - | - | - |
| 1777970101 | 26.67° C | 24% | 1011.9 hPa | - | - | - | - |
| 1777968601 | 26.11° C | 23% | 1012.1 hPa | - | - | - | - |
| 1777967101 | 26.11° C | 23% | 1012.2 hPa | - | - | - | - |
| 1777965601 | 25.56° C | 23% | 1012.4 hPa | - | - | - | - |
| 1777964101 | 25.56° C | 24% | 1012.4 hPa | - | - | - | - |
| 1777962601 | 25° C | 24% | 1012.4 hPa | - | - | - | - |
| 1777961101 | 25° C | 24% | 1012.5 hPa | - | - | - | - |
| 1777959600 | 24.44° C | 24% | 1012.4 hPa | - | - | - | - |
| 1777958100 | 24.44° C | 24% | 1012.4 hPa | - | - | - | - |
| 1777956600 | 24.44° C | 24% | 1012.3 hPa | - | - | - | - |
| 1777955100 | 24.44° C | 23% | 1012.3 hPa | - | - | - | - |
| 1777953600 | 25° C | 23% | 1012.2 hPa | - | - | - | - |
| 1777952100 | 25° C | 22% | 1012.2 hPa | - | - | - | - |
| 1777950600 | 25° C | 22% | 1012.2 hPa | - | - | - | - |
| 1777949100 | 25.56° C | 22% | 1012.3 hPa | - | - | - | - |
* Rain since midnight (hover to see other rain measurements)
** Current wind speed in m/s (hover to see current wind gust speed)